Regional Weather Roundup
Issued by NWS Bismarck, ND

Home | Current Version | Previous Version | Text Only | Print | Product List | Glossary On
Versions: 1 2 3 4 5 6 7 8 9 10 11 12 13 14 15 16 17 18 19 20 21 22 23 24 25 26 27 28 29 30 31 32 33 34 35 36 37 38 39 40 41 42 43 44 45 46 47 48 49 50
000
ASUS43 KBIS 010802
RWRBIS

NWR BROADCAST TEXT
NATIONAL WEATHER SERVICE BISMARCK ND
300 AM CDT TUE SEP 01 2015

NOTE: "FAIR" INDICATES FEW OR NO CLOUDS BELOW 12,000 FEET WITH NO
SIGNIFICANT WEATHER AND/OR OBSTRUCTIONS TO VISIBILITY.


CITY           SKY/WX    TMP DP  RH WIND       PRES   REMARKS
WILLISTON      CLEAR     47  43  86 CALM      29.84F
MINOT          CLEAR     59  47  64 SW8       29.84F
MINOT AFB      NOT AVBL
BISMARCK       CLEAR     56  51  84 E5        29.88F
DICKINSON      CLEAR     55  46  71 S9        29.86F
GARRISON         N/A     57  47  69 CALM      29.86F
HETTINGER ARPT CLEAR     54  47  77 SE5       29.91F
JAMESTOWN      MOCLDY    56  53  90 CALM      29.88F
HAZEN          FAIR      46  43  87 S5        29.87F
OAKES            N/A     57  57 100 CALM      29.89S
STANLEY        FAIR      48  45  87 CALM      29.87S
$$

CITY           SKY/WX    TMP DP  RH WIND       PRES   REMARKS
GRAND FORKS    PTCLDY    56  53  90 SW5       29.85S
GRAND FORKS AF PTCLDY    53  50  90 SW6       29.86S
DEVILS LAKE    CLEAR     63  48  59 S10       29.85S
FARGO          MOCLDY    60  58  92 CALM      29.87F
CAVALIER       FAIR      55  46  71 SW5       29.83S
GRAFTON        FAIR      55  52  88 SW5       29.85S
GWINNER          N/A     61  61 100 CALM      29.90S
LANGDON        FAIR      48  46  93 S5        29.86S
$$

CITY           SKY/WX    TMP DP  RH WIND       PRES   REMARKS
ABERDEEN       CLOUDY    62  60  93 N5        29.89F
MOBRIDGE       CLOUDY    60  59  96 E5        29.87F
BUFFALO          N/A     62  53  72 S3        29.85F
RAPID CITY     CLEAR     57  55  93 SE5       29.90F
GLASGOW        CLEAR     54  45  71 E7        29.82F
SIDNEY         CLEAR     48  39  71 CALM      29.84F
WOLF POINT     CLEAR     49  43  80 CALM      29.83F
GLENDIVE       CLEAR     55  37  50 CALM      29.86F
MILES CITY     CLEAR     58  42  55 NE6       29.85F
BAKER          CLEAR     58  51  78 SE7       29.89F
$$

CITY           SKY/WX    TMP DP  RH WIND       PRES   REMARKS
BILLINGS       CLEAR     63  36  36 CALM      29.87F
GREAT FALLS    MOCLDY    59  38  45 S8        29.85F
$$



USA.gov is the U.S. government's official web portal to all federal, state and local government web resources and services.